Regional Weather Roundup
Issued by NWS Memphis, TN

Home | Current Version | Previous Version | Text Only | Print | Product List | Glossary On
Versions: 1 2 3 4 5 6 7 8 9 10 11 12 13 14 15 16 17 18 19 20 21 22 23 24 25 26 27 28 29 30 31 32 33 34 35 36 37 38 39 40 41 42 43 44 45 46 47 48 49 50
000
ASUS44 KMEG 261710
RWRMEG
MEMPHIS CWA HOURLY WEATHER ROUNDUP
NATIONAL WEATHER SERVICE MEMPHIS TN
1100 AM CST MON JAN 26 2015

...WEST TENNESSEE...

CITY           SKY/WX    TMP DP  RH WIND       PRES   REMARKS
MEMPHIS INTL   CLOUDY    42  29  59 NW8       30.13R
NWS MEMPHIS      N/A     41 N/A N/A MISG        N/A
JACKSON        CLOUDY    38  27  64 NW14      30.10R WCI  30
LEXINGTON      PTSUNNY   37  27  65 VRB7      30.06R WCI  32
SAVANNAH       MOSUNNY   37  27  65 NW16      30.09R WCI  28
DYERSBURG      CLOUDY    37  19  48 NW7       30.13F WCI  32
UNION CITY     PTSUNNY   34  28  80 NW10      30.08F WCI  26
PARIS          CLOUDY    30  25  80 W8        30.08S WCI  23


...EASTERN ARKANSAS...

CITY           SKY/WX    TMP DP  RH WIND       PRES   REMARKS
JONESBORO      PTSUNNY   38  31  76 W7        30.13R WCI  33
WEST MEMPHIS   CLOUDY    39  32  76 NW5       30.14R
BATESVILLE     SUNNY     45  28  53 W8        30.13R
NEWPORT        FAIR      43  31  63 NW12      30.16R
WALNUT RIDGE   CLOUDY    39  27  60 NW8       30.13S WCI  34
BLYTHEVILLE    CLOUDY    41  31  67 NW10      30.12S
NW BLYTHEVILLE PTSUNNY   41  32  70 W5        30.13R
SEARCY         SUNNY     47  32  56 W10       30.14F
STUTTGART      SUNNY     46  32  57 W13       30.16F
PINE BLUFF     SUNNY     46  31  55 NW9       30.17S
MONTICELLO     SUNNY     47  32  56 NW7       30.17R


...NORTH MISSISSIPPI...

CITY           SKY/WX    TMP DP  RH WIND       PRES   REMARKS
TUPELO         MOSUNNY   43  30  60 N9        30.09F
OXFORD         PTSUNNY   41  28  60 NW7       30.13F
OLIVE BRANCH   PTSUNNY   39  32  75 NW10      30.12S WCI  32
TUNICA         PTSUNNY   41  32  70 W7        30.15F
CLARKSDALE     CLOUDY    41  32  70 NW10G17   30.15F
CORINTH        MOSUNNY   41  28  60 NW12G18   30.08S
GRENADA        CLOUDY    43  32  65 NW12      30.14F
GREENWOOD      CLOUDY    43  31  62 NW8       30.17R
COLUMBUS       PTSUNNY   45  31  57 N18       30.10S
STARKVILLE     PTSUNNY   43  32  65 NW9       30.11F
GOLDEN TRIANGL PTSUNNY   43  34  70 NW9       30.10R


...SOUTHEAST MISSOURI...

CITY           SKY/WX    TMP DP  RH WIND       PRES   REMARKS
WEST PLAINS    MOSUNNY   39  28  64 W8        30.06F WCI  33
POPLAR BLUFF   CLOUDY    37  27  67 W9        30.10R WCI  30
CAPE GIRARDEAU CLOUDY    35  27  72 NW10      30.09F WCI  27


...NORTHWEST ALABAMA...

CITY           SKY/WX    TMP DP  RH WIND       PRES   REMARKS
MUSCLE SHOALS  CLOUDY    38  30  73 NW13      30.06F WCI  30


...MIDDLE TENNESSEE...

CITY           SKY/WX    TMP DP  RH WIND       PRES   REMARKS
NASHVILLE      CLOUDY    34  29  82 NW7       30.02F WCI  28
CLARKSVILLE    CLOUDY    33  28  81 N12       30.05R WCI  24
COLUMBIA       CLOUDY    36  34  93 NW8       30.01S WCI  29


...WESTERN KENTUCKY...

CITY           SKY/WX    TMP DP  RH WIND       PRES   REMARKS
PADUCAH        MOSUNNY   34  24  67 NW10      30.07F WCI  26
FORT CAMPBELL  CLOUDY    32  27  83 NW12      30.05R WCI  23


...CENTRAL ARKANSAS...

CITY           SKY/WX    TMP DP  RH WIND       PRES   REMARKS
LITTLE ROCK    SUNNY     49  31  49 NW8       30.15F


SKY/WX REPORTED AS FAIR MEANS FEW OR NO CLOUDS BELOW
12 THOUSAND FEET.



USA.gov is the U.S. government's official web portal to all federal, state and local government web resources and services.